Flag for U.S.A. Weather past 2 weeks in Wilmington, Delaware, U.S.A.

Now
64 °F

Sunny.


Feels Like: 64 °F
Forecast: 56 / 71 °F
Wind: 16 mph from Northeast

Location: New Castle County Airport

Current Time: Sep 19, 2014 at 10:58:29 AM

Latest Report: Sep 19, 2014 at 9:51 AM


Visibility: 10 mi

Pressure: 30.29 "Hg

Humidity: 68%

Dew point: 53 °F

Location of WilmingtonLocation

Historic Weather in Wilmington — Graph

°F

Wilmington temperature yesterday

Maximum temperature yesterday: 72 °F (at 5:51 PM)
Minimum temperature yesterday: 51 °F (at 5:51 AM)
Average temperature yesterday: 62 °F

Past Weeks' High & Low Weather Summary

 TemperatureHumidityPressure
High91 °F (Sep 6, 2:51 PM)97% (Sep 5, 5:51 AM)30.32 "Hg (Sep 5, 5:51 AM)
Low48 °F (Sep 15, 6:51 AM)41% (Sep 7, 4:51 PM)29.85 "Hg (Sep 11, 3:51 PM)
Average69 °F73%30.10 "Hg
* Reported Sep 4 9:51 AM — Sep 19 9:51 AM, Wilmington, Weather by CustomWeather, © 2014

Note: Actual official high and low records may vary slightly from our data, if they occured in-between our weather recording intervals... More about our weather records

Advertising

Wilmington weather history for previous 24 hours

 ConditionsComfort  
Time TempWeatherWind HumidityBarometerVisibility
9:51 AM
Sep 19
64 °FSunny.16 mph68%30.29 "Hg10 mi
8:51 AM60 °FSunny.12 mph72%30.27 "Hg10 mi
7:51 AM58 °FSunny.12 mph75%30.25 "Hg10 mi
6:51 AM56 °FClear.10 mph81%30.23 "Hg10 mi
5:51 AM54 °FClear.10 mph83%30.20 "Hg10 mi
4:51 AM55 °FClear.8 mph80%30.19 "Hg10 mi
3:51 AM57 °FClear.10 mph81%30.16 "Hg10 mi
2:51 AM58 °FClear.10 mph78%30.15 "Hg10 mi
1:51 AM57 °FClear.9 mph87%30.13 "Hg10 mi
12:51 AM57 °FClear.5 mph96%30.11 "Hg9 mi
11:51 PM
Sep 18
59 °FClear.3 mph93%30.11 "Hg10 mi
10:51 PM60 °FClear.3 mph90%30.09 "Hg10 mi
9:51 PM62 °FClear.No wind83%30.09 "Hg10 mi
8:51 PM63 °FClear.No wind84%30.06 "Hg10 mi
7:51 PM66 °FSunny.5 mph73%30.04 "Hg10 mi
6:51 PM69 °FSunny.3 mph63%30.02 "Hg10 mi
5:51 PM72 °FPartly sunny.5 mph55%30.02 "Hg10 mi
4:51 PM71 °FOvercast.No wind59%30.02 "Hg10 mi
3:51 PM70 °FPartly sunny.No wind61%30.02 "Hg10 mi
2:51 PM67 °FOvercast.8 mph73%30.02 "Hg10 mi
1:51 PM69 °FOvercast.10 mph66%30.02 "Hg10 mi
12:51 PM70 °FMore clouds than sun.3 mph64%30.02 "Hg10 mi
11:51 AM69 °FOvercast.No wind57%30.02 "Hg10 mi
10:51 AM66 °FOvercast.No wind61%30.03 "Hg10 mi
Weather by CustomWeather, © 2014

See weather overviewHow to use our weather pages